[[{"header":{"parameterUnit":"m.s-1","parameterCategory":1,"la1":30.2991,"la2":30.254,"lo1":-89.0895,"lo2":-89.0444,"dy":0.0017,"dx":0.0017,"nx":28,"ny":28,"refTime":"2025-06-08T21:00:00:Z","depth":0,"parameterNumber":2,"parameterNumberName":"U-component_of_WINDS"},"data":[0,0,0,0,0,0,0,0,0,0,0,0,0,0,0,0,0,0,0,0,0,0,0,0,0,0,0,0,0,0,0,0,0,0,0,0,0,0,0,0,0,0,0,0,0,0,0,0,0,0,0,0,0,0,0,0,0,0,5.7194,5.7195,0,5.7318,5.7319,5.7321,5.7283,5.7281,5.7278,5.7276,5.7399,5.7405,5.741,0,0,0,0,0,0,0,0,0,0,0,0,0,5.6916,5.6921,5.7194,5.7195,5.7197,5.7318,5.7319,5.7321,5.7284,5.7281,5.7278,5.7275,5.7397,5.7404,5.7411,0,0,0,0,0,0,0,0,0,0,0,0,0,5.7038,5.6923,5.7193,5.7193,5.7194,5.7317,5.7319,5.7322,5.7285,5.7281,5.7277,5.7273,5.7395,5.7403,5.7412,5.7542,0,0,5.7438,5.7442,0,0,0,0,0,0,0,0,5.7031,5.7048,5.7191,5.7193,5.7195,5.7281,5.7267,5.7395,5.7286,5.725,5.7276,5.7271,5.7363,5.7374,5.7406,5.7548,5.7553,5.7439,5.7444,5.7448,5.745,0,0,0,0,0,0,0,5.7023,5.7043,5.7243,5.7193,5.7195,5.7184,5.7197,5.7291,5.7327,5.7253,5.725,5.7266,5.7363,5.7397,5.7408,5.7555,5.7439,5.7446,5.7451,5.7455,5.7803,5.7807,0,0,0,0,0,0,5.7014,5.7036,5.7239,5.7246,5.7102,5.7192,5.7206,5.7257,5.7325,5.7332,5.7269,5.7264,5.7385,5.7398,5.7412,5.7564,5.7448,5.7456,5.746,5.7799,5.7804,5.7808,0,0,0,0,0,0,5.7008,5.7033,5.7234,5.7141,5.7165,5.7201,5.7258,5.7262,5.7296,5.7338,5.7343,5.7298,5.7382,5.74,5.7509,5.7568,5.7459,5.7467,5.7794,5.78,5.7806,5.7872,0,0,0,0,0,0,5.7,5.7031,5.7083,5.7142,5.717,5.7331,5.7262,5.7267,5.7311,5.7306,5.7367,5.7373,5.7381,5.7496,5.7517,5.7578,5.7474,5.7788,5.7797,5.7804,5.7865,5.788,5.7893,0,0,0,0,0,5.6991,5.7097,5.7086,5.711,5.7237,5.7334,5.735,5.7358,5.7317,5.7367,5.7393,5.7371,5.7559,5.7508,5.7531,5.7595,5.7785,5.7794,5.7803,5.7858,5.7877,5.7892,0,0,0,0,0,0,5.7045,5.7105,5.7093,5.7223,5.7273,5.7328,5.7393,5.7378,5.7441,5.7433,5.7439,5.7453,5.7562,5.759,5.7532,5.7721,5.7665,5.7679,5.7699,5.7717,5.7731,5.772,5.7481,0,0,0,0,0,5.7071,5.7148,5.7196,5.7305,5.7331,5.7358,5.7401,5.7402,5.7454,5.7475,5.7509,5.7559,5.7629,5.7675,5.7742,5.7869,5.7878,5.7924,5.7938,5.7949,5.7961,5.8023,5.8043,5.7838,5.7838,5.7838,0,0,5.7128,5.717,5.7218,5.7317,5.7357,5.7432,5.7376,5.746,5.7514,5.7488,5.7591,5.7617,5.7673,5.779,5.7843,5.7816,5.8019,5.7961,5.797,5.7975,5.8035,5.8054,5.8071,5.7845,5.7844,5.7843,0,0,5.7268,5.7311,5.7403,5.7443,5.7503,5.7519,5.7541,5.7597,5.7613,5.7717,5.7696,5.7761,5.7882,5.7921,5.7957,5.8106,5.8085,5.8127,5.8199,5.8261,5.8277,5.8291,5.8339,5.8357,5.8139,5.8139,5.8139,0,5.733,5.7445,5.7452,5.7536,5.7578,5.7556,5.7647,5.7686,5.7764,5.7792,5.7761,5.7909,5.7946,5.8068,5.8103,5.8135,5.8156,5.812,5.8274,5.8288,5.8302,5.8347,5.8366,5.8144,5.8143,5.8143,5.8142,0,5.7516,5.7595,5.7662,5.7738,5.7787,5.7874,5.7891,5.794,5.7935,5.7953,5.8056,5.8098,5.8171,5.82,5.8198,5.8321,5.8301,5.8273,5.8216,5.8325,5.8368,5.8386,5.815,5.8148,5.8147,5.8146,0,0,5.7695,5.777,5.7794,5.7825,5.7888,5.7948,5.8032,5.8103,5.8141,5.8195,5.8262,5.8363,5.8335,5.8376,5.8377,5.8431,5.8539,5.8395,5.8396,5.8416,5.867,5.8689,5.871,5.8527,5.853,5.8533,5.8664,0,5.7837,5.7986,5.7992,5.8126,5.8196,5.8174,5.8247,5.8291,5.8309,5.8368,5.8387,5.8457,5.8417,5.844,5.8493,5.8515,5.859,5.8506,5.8585,5.8588,5.8569,5.8733,5.8754,5.8876,5.8681,5.8684,5.8686,0,5.8024,5.8081,5.8222,5.8269,5.8299,5.8364,5.8425,5.8485,5.8532,5.854,5.8583,5.8575,5.8656,5.8598,5.8707,5.865,5.8683,5.8697,5.8702,5.8707,5.8642,5.8738,5.8916,5.8932,5.8714,5.8712,5.871,0,5.8134,5.8247,5.8345,5.8373,5.8431,5.8476,5.8502,5.8546,5.8586,5.864,5.8665,5.8728,5.8761,5.8808,5.8815,5.8773,5.8922,5.8866,5.8928,5.8928,5.8959,5.8956,5.9139,5.8986,5.8986,5.8986,5.8985,0,5.829,5.8376,5.8394,5.8454,5.8547,5.8552,5.8643,5.8666,5.8704,5.8764,5.875,5.8807,5.8814,5.8872,5.8878,5.8964,5.898,5.8986,5.8986,5.8986,5.8984,5.9005,5.8995,5.899,5.8989,5.8988,5.8988,0,5.8429,5.8445,5.8549,5.8594,5.8607,5.8674,5.8711,5.8766,5.8781,5.8857,5.8875,5.8898,5.8965,5.8977,5.9056,5.9059,5.916,5.9154,5.9145,5.9142,5.9201,5.9194,5.9402,5.9427,5.9261,5.9263,5.9264,0,5.8526,5.8591,5.8642,5.8681,5.8709,5.8774,5.8814,5.882,5.8861,5.8917,5.8964,5.9029,5.908,5.9187,5.9209,5.9267,5.9259,5.9328,5.9268,5.9263,5.9254,5.9249,5.9253,5.9338,5.934,5.9342,5.9343,0,5.8694,5.8697,5.8756,5.8816,5.8864,5.8912,5.8957,5.899,5.9001,5.9047,5.9115,5.9155,5.9233,5.9296,5.9353,5.9377,5.936,5.9362,5.9378,5.9376,5.9366,5.9367,5.9171,5.9356,5.9355,5.9354,5.9353,5.9353,5.8812,5.8866,5.8909,5.8973,5.9007,5.9048,5.91,5.912,5.9177,5.9241,5.9241,5.9313,5.9353,5.9428,5.9455,5.951,5.9487,5.9513,5.9518,5.9523,5.9527,5.936,5.9521,5.952,5.952,5.952,5.952,0,5.8974,5.9,5.9059,5.9121,5.917,5.9151,5.9199,5.924,5.9304,5.9344,5.9394,5.9468,5.9528,5.9553,5.9611,5.9649,5.9642,5.9663,5.9659,5.9663,5.9546,5.9524,5.9667,5.9667,5.9667,5.9667,5.9667,5.9667,5.9065,5.9154,5.9161,5.9265,5.929,5.9361,5.9388,5.9424,5.9455,5.9539,5.9588,5.9604,5.9636,5.9695,5.9747,5.9753,5.9772,5.9796,5.9798,5.9687,5.9672,5.9658,5.9637,5.9802,5.9802,5.991,5.9911,5.9911]},{"header":{"parameterUnit":"m.s-1","parameterCategory":1,"la1":30.2991,"la2":30.254,"lo1":-89.0895,"lo2":-89.0444,"dy":0.0017,"dx":0.0017,"nx":28,"ny":28,"refTime":"2025-06-08T21:00:00:Z","depth":0,"parameterNumber":3,"parameterNumberName":"V-component_of_WINDS"},"data":[0,0,0,0,0,0,0,0,0,0,0,0,0,0,0,0,0,0,0,0,0,0,0,0,0,0,0,0,0,0,0,0,0,0,0,0,0,0,0,0,0,0,0,0,0,0,0,0,0,0,0,0,0,0,0,0,0,0,4.4485,4.4487,0,4.4647,4.4649,4.4651,4.4536,4.4531,4.4525,4.4521,4.4694,4.4703,4.4713,0,0,0,0,0,0,0,0,0,0,0,0,0,4.4082,4.409,4.4485,4.4487,4.4489,4.4647,4.4649,4.4651,4.4537,4.453,4.4524,4.4518,4.4691,4.4702,4.4713,0,0,0,0,0,0,0,0,0,0,0,0,0,4.4252,4.4093,4.4485,4.4451,4.4449,4.4646,4.4649,4.4652,4.4538,4.453,4.4522,4.4515,4.4687,4.4701,4.4715,4.4956,0,0,4.4758,4.4764,0,0,0,0,0,0,0,0,4.4243,4.4267,4.4454,4.4453,4.4452,4.4563,4.457,4.4754,4.454,4.4505,4.452,4.4512,4.4657,4.4673,4.4721,4.4965,4.4972,4.4759,4.4768,4.4774,4.4778,0,0,0,0,0,0,0,4.4231,4.426,4.4549,4.4456,4.4456,4.4429,4.4445,4.4605,4.4623,4.4507,4.4499,4.4519,4.4655,4.4708,4.4724,4.4975,4.4759,4.4771,4.478,4.4786,4.5423,4.5431,0,0,0,0,0,0,4.4222,4.4251,4.4544,4.4554,4.4326,4.4443,4.446,4.4535,4.462,4.4626,4.4526,4.4513,4.4687,4.4708,4.473,4.5017,4.4774,4.4787,4.4795,4.5414,4.5425,4.5434,0,0,0,0,0,0,4.4213,4.4249,4.4537,4.44,4.4435,4.4458,4.4543,4.4543,4.4594,4.4634,4.4638,4.4575,4.4682,4.471,4.49,4.5021,4.4793,4.4806,4.5404,4.5418,4.5429,4.5593,0,0,0,0,0,0,4.4202,4.4247,4.4337,4.4403,4.4443,4.4704,4.4551,4.4551,4.4618,4.4604,4.4682,4.4687,4.4678,4.4879,4.4914,4.5036,4.4817,4.5394,4.541,4.5425,4.5577,4.561,4.5638,0,0,0,0,0,4.4188,4.4379,4.4343,4.4379,4.4556,4.4711,4.4734,4.4717,4.4628,4.4721,4.4746,4.4685,4.5002,4.49,4.4938,4.5066,4.5386,4.5406,4.5424,4.5564,4.5604,4.5638,0,0,0,0,0,0,4.4331,4.4387,4.4347,4.4565,4.4633,4.4691,4.4807,4.476,4.4858,4.484,4.4817,4.4836,4.5035,4.507,4.4955,4.5304,4.518,4.5208,4.5274,4.5312,4.5342,4.5329,4.4829,0,0,0,0,0,4.4386,4.4505,4.4549,4.4737,4.4773,4.4785,4.4851,4.4832,4.4903,4.4933,4.4972,4.5046,4.5161,4.5239,4.5348,4.5582,4.5597,4.5689,4.5719,4.5744,4.5768,4.5893,4.5934,4.5496,4.5496,4.5496,0,0,4.4505,4.455,4.4627,4.4767,4.4818,4.4943,4.481,4.4948,4.5041,4.4955,4.5135,4.5167,4.5248,4.546,4.5556,4.5495,4.5892,4.5768,4.5788,4.5799,4.5917,4.5958,4.5995,4.5509,4.5507,4.5505,0,0,4.4783,4.483,4.499,4.5043,4.5121,4.5127,4.5166,4.523,4.5247,4.5427,4.5364,4.5476,4.5676,4.5736,4.5792,4.6092,4.6039,4.6128,4.6288,4.641,4.6444,4.6475,4.6581,4.6619,4.6152,4.6153,4.6153,0,4.4921,4.5105,4.508,4.5222,4.5285,4.5209,4.5372,4.5426,4.5537,4.5583,4.5513,4.5761,4.581,4.6035,4.6107,4.6156,4.62,4.6119,4.6441,4.6471,4.6499,4.66,4.664,4.6163,4.6162,4.6161,4.616,0,4.527,4.5398,4.5519,4.5624,4.5701,4.5853,4.5852,4.5933,4.5907,4.5921,4.6106,4.6161,4.628,4.6332,4.6309,4.6554,4.6513,4.6443,4.6318,4.6552,4.6646,4.6685,4.6177,4.6174,4.6171,4.6168,0,0,4.5644,4.5731,4.5775,4.5821,4.5901,4.6001,4.615,4.6262,4.6332,4.6411,4.6536,4.6706,4.664,4.6705,4.6688,4.6796,4.7028,4.6712,4.6713,4.6768,4.73,4.7352,4.7397,4.6993,4.7,4.7006,4.7292,0,4.5925,4.6181,4.6163,4.6405,4.6523,4.6452,4.6582,4.6646,4.6662,4.6767,4.6786,4.6906,4.6811,4.6849,4.6952,4.6978,4.7134,4.6957,4.711,4.7116,4.7091,4.7446,4.7502,4.7769,4.7329,4.7336,4.734,0,4.6288,4.6376,4.663,4.6689,4.6738,4.6855,4.6956,4.7056,4.7127,4.7131,4.7202,4.7167,4.7319,4.719,4.7399,4.7279,4.734,4.7362,4.7372,4.7386,4.7242,4.7469,4.7854,4.7894,4.7398,4.7394,4.7389,0,4.6534,4.6716,4.6891,4.6933,4.7007,4.7091,4.7126,4.7189,4.7257,4.7347,4.7391,4.7498,4.7557,4.7641,4.7636,4.7543,4.7848,4.7719,4.7857,4.7857,4.7924,4.792,4.8324,4.7965,4.7964,4.7964,4.7963,0,4.685,4.7008,4.7002,4.7109,4.7284,4.7261,4.7436,4.7462,4.7519,4.7631,4.7578,4.7685,4.7672,4.778,4.7778,4.795,4.7978,4.7986,4.7984,4.7991,4.799,4.8031,4.8012,4.7974,4.7972,4.797,4.7968,0,4.7155,4.7156,4.7342,4.7396,4.7413,4.754,4.7587,4.769,4.77,4.7844,4.7876,4.7895,4.8019,4.8022,4.8166,4.8164,4.8375,4.8352,4.835,4.8346,4.8482,4.8469,4.8927,4.8986,4.8589,4.8593,4.8596,0,4.7356,4.7475,4.7541,4.7611,4.765,4.7765,4.7833,4.7816,4.789,4.7978,4.8071,4.8189,4.8283,4.8486,4.8514,4.8623,4.8602,4.8755,4.8618,4.8621,4.8603,4.8596,4.8607,4.8782,4.8786,4.879,4.8792,0,4.7713,4.7707,4.7806,4.7907,4.7989,4.8068,4.8141,4.8202,4.8193,4.8279,4.8404,4.8477,4.8621,4.874,4.8846,4.8884,4.8838,4.8835,4.8872,4.8881,4.8874,4.8879,4.8422,4.8825,4.8821,4.8819,4.8817,4.8816,4.7971,4.8073,4.8134,4.8247,4.8299,4.8368,4.8466,4.8488,4.8591,4.8705,4.869,4.8829,4.8897,4.9033,4.908,4.919,4.9137,4.9192,4.9206,4.9219,4.9233,4.8857,4.921,4.9209,4.9208,4.9207,4.9206,0,4.8324,4.8359,4.8463,4.8564,4.8653,4.8598,4.8676,4.8754,4.8876,4.8942,4.9035,4.9178,4.9293,4.9329,4.944,4.9521,4.9502,4.9551,4.9544,4.9554,4.9275,4.923,4.9563,4.9563,4.9563,4.9563,4.9563,4.9563,4.8518,4.8686,4.8688,4.8882,4.8917,4.9051,4.91,4.9163,4.9215,4.9376,4.947,4.9492,4.9546,4.966,4.9763,4.9771,4.9814,4.9872,4.9871,4.9609,4.9573,4.9539,4.9498,4.9881,4.9882,5.014,5.0143,5.0144]}]]